Погода Шауляй

Поиск расширенной информации на нашем сайте:

Полезная информация:

Новости сайта



02.01.2020
Опубликован Долгосрочный прогноз погоды по городам России и ближнего зарубежья на январь 2020 года.
Карты: Прогноз на январь и февраль 2020 года, Сравнение прогнозируемой аномалии приземной температуры воздуха на январь 2020 года по разным моделям.




Погода Шауляй - сегодня

Время (UTC), дата Ветер
(°,м/с) 
Видим.   Явления Облачность Т
(°С)
Тd
(°С)
f(%) Тe
(°С)
Pmin
(гПа)
dP
(гПа)
Po
(мм)
O2
(г/м3)
Тmin Tmax R s Состояние
почвы
12 19.10.20 270 (З) 5-13{13}  20000 м    6/6 1000 м 
[Cu med, cong]
+10 -0.3 49 +9  1012.2  0.5  749  291           
15 19.10.20 280 (З) 3-7{15}  20000 м    3/1 1000 м верхняя 
[Sc|Ci sp]
+7.2 -0.4 58 +6  1013.8  1.4  751  295           
18 19.10.20 240 (ЮЗ) 3-7{07}  20000 м    ясно 
+4.5 -0.1 72 +3  1015.1  1.2  751  298    +10.2       
21 19.10.20 240 (ЮЗ) 2-4{07}  20000 м    ясно 
+2.9 -0.2 80 +2  1016.5  1.3  752  300           
00 20.10.20 240 (ЮЗ) 2-5{06}  20000 м    ясно 
+2.1 -0.7 82 +1  1017.4  0.8  753  301           
03 20.10.20 250 (З) 2-5{05}  20000 м    ясно 
+2 -0.6 83 +1  1019.1  1.7  754  302           
06 20.10.20 260 (З) 1-3{05}  20000 м    3/0 верхняя 
[Ci sp]
+1.8 -0.7 83 +3  1020.9  1.8  756  303  +1.4        влажная 
09 20.10.20 280 (З) 2-5{05}  20000 м    9/0 верхняя 
[Cs]
+7.3 +1.1 65 +7  1022.6  1.9  757  297           
12 20.10.20 250 (З) 2-4{05}  19000 м    10/0 верхняя 
[Cs]
+8.7 +1.3 60 +9  1022.5  757  295           
15 20.10.20 190 (Ю) 2-4{05}  19000 м    10/0 средняя 
[Ac As]
+7.3 +3.1 75 +7  1021.6  -1  756  296           
18 20.10.20 190 (Ю) 3-5{06}  18000 м    10/0 средняя 
[Ac As]
+6 +3.2 82 +5  1020.1  -1.4  755  297    +8.8       
21 20.10.20 160 (Ю) 3-6{06}  20000 м    6/0 верхняя 
[Cs]
+5.8 +4.1 89 +5  1017.6  -2.6  753  297           
00 21.10.20 170 (Ю) 3-6{07}  19000 м  в посл. час ливневой дождь  10/10 1500 м 
[Sc]
+6.2 +4.6 89 +5  1015.1  -2.5  751  295      0.2     
03 21.10.20 180 (Ю) 3-7{07}  17000 м  {ливн. осадки}  10/0 средняя 
[Ac As]
+6.2 +4.6 89 +5  1012  -3  749  294           
06 21.10.20 180 (Ю) 2-3{07}  9000 м  дымка{ливн. осадки}  10/3 270 м средняя 
[St|Ac As]
+6.3 +4.9 91 +6  1011.3  -0.7  749  294  +5.8    0.3    влажная 
09 21.10.20 220 (ЮЗ) 4-6{06}  11000 м    10/10 300 м 
[St]
+8.4 +6.3 87 +7  1011.7  0.4  749  292           
12 21.10.20 210 (ЮЗ) 3-6{07}  8000 м  дымка  10/10 400 м 
[St]
+9.9 +7.2 83 +9  1011.7  749  290           
15 21.10.20 210 (ЮЗ) 3-7{07}  4800 м  дымка  10/10 360 м 
[St]
+9.3 +6.9 85 +9  1011.9  0.1  749  291           
18 21.10.20 190 (Ю) 4-6{07}  7000 м  дымка  10/10 240 м 
[St]
+9.3 +7.6 89 +8  1010.8  -1.1  748  290    +10.1       
21 21.10.20 200 (Ю) 3-7{07}  9000 м  слаб. дождь  10/10 150 м 
[Frnb|Ns]
+9.6 +8.7 94 +9  1009.5  -1.2  747  289           
00 22.10.20 190 (Ю) 4-7{08}  6000 м  слаб. дождь  10/10 180 м 
[Frnb|Ns]
+10 +9.2 95 +9  1007.8  -1.7  746  288         
03 22.10.20 200 (Ю) 6-10{11}  7000 м  в посл. час дождь  10/5 200 м средняя 
[Frnb|Ac As]
+9.4 +8.2 92 +8  1004.8  -3  744  288           
06 22.10.20 210 (ЮЗ) 4-8{10}  10 км  {дождь}  8/5 1500 м средняя 
[Sc|Ac trans]
+9 +7.5 90 +8  1003.9  -0.8  743  289  +8.9    0.8    влажная 
09 22.10.20 220 (ЮЗ) 5-9{11}  19000 м  в посл. час ливневой дождь  10/10 1500 м 
[Sc]
+11.9 +9.2 84 +11  1003.6  -0.2  743  285           
12 22.10.20 240 (ЮЗ) 6-13{15}  19000 м  слаб. ливневой дождь  10/10 480 м кучево-дожд. 
[Cb cap]
+13.1 +10.7 85 +14  1002.8  -0.7  743  284      0.0     
Время (UTC), дата Ветер
(°,м/с) 
Видим.   Явления Облачность Т
(°С)
Тd
(°С)
f(%) Тe
(°С)
Pmin
(гПа)
dP
(гПа)
Po
(мм)
O2
(г/м3)
Тmin Tmax R s Состояние
почвы

Для получения пояснительной информации подведите курсор к названию столбца.

ПОГОДА Шауляй - архив

Всё, что Вы хотите узнать о погоде Шауляй - удобно и подробно!

Выберите нужную дату (начиная с 1 января 2019* года) и нажмите кнопку "Найти".
Будут отображены архивные сводки погоды по пункту Шауляй, начиная с указанной даты.


Отображать данные в формате CSV (для использования в таблицах Excel)


Внимание! Наш архив погоды предназначен исключительно для личного некоммерческого использования в познавательных целях. Если Вам необходимы официальные справки о состоянии погоды (для производственных, юридических, коммерческих и т.п. целей), обращайтесь в органы Росгидромета.

*Примечание: данная дата относится к архиву по метеостанциям СССР (Россия, СНГ, Балтия).
Архив по метеостанциям Зарубежной Европы и Азии (кроме Китая) хранится 10 дней, по другим регионам земного шара (Китай, Африка, Америка, Австралия, Океания) - 1 день.

Шауляй - район местоположения метеостанции


Название, широта, долгота, высота метеостанции:
Шауляй 55.9°ш. 23.3°д. 107 м над ур. моря [Литва]

Дополнительная информация

В oтличие oт бoльшинства пoгoдных сайтoв мы публикуем пoдрoбную метеoинфoрмацию в детальнoм прoфессиoнальнoм фoрмате.

Характеристики температуры и влажнoсти вoздуха измеряются на высoте 2 м в тени вдали oт зданий и деревьев.
Скoрoсть ветра измеряется на высoте 10 м (на урoвне рoста челoвека скoрoсть ветра ниже в 1.5-2 раза). Если метеoстанция нахoдится в гoрoде или в лесу, тo скoрoсть ветра занижена на 2-4 м/с пo сравнению с oткрытым местoм. Скoрoсть ветра над акватoриями крупных рек и oзёр, а также на вершинах хoлмoв на 2-5 м/с выше, чем в oбычных услoвиях.
Атмoсфернoе давление в разных тoчках местнoсти мoжет значительнo oтличаться oт давления на метеoстанции, в зависимoсти oт услoвий рельефа (при пoдъёме на 10 м давление пoнижается примернo на 1 мм рт.ст.).